Current weather by "City, St" or "zip code"  
 

Current Conditions: Minneapolis, Airlake Airport, MN

Fair


30.0 F

Last Updated on Oct 29 2020, 6:55 pm CDT
Humidity: 69%
Wind Speed: N 0.0 mph
Barometer 30.13 in
Dewpoint: 21.2 F
Visibility: 10.00 mi
Precip: --
Heat Index: NA
Wind Chill: NA
Current conditions at:

Minneapolis, Airlake Airport, MN (KLVN)

Lat: 44.62778 Lon: 93.22806

Local Radar Image active severe weather and emergency alerts image image weather storm and storm spotter reports image weather observation monitoring service image
Local
Radar
Active
Alerts
Storm Reports Obs
Monitoring

Sign-up For Email & Text Message Weather Alert Notification Services



Advertise Here

Observation History for Minneapolis, Airlake Airport, MN


Time Wind
(mph)
Vis
(mi)
Weather Precip (in) Temperature (F) Relative
Humidity
Wind
Chill
(F)
Heat
Index
(F)
Pressure
Air Dwpt altimeter
(in)
sea level
(mb)
Rmks
6:55 pm CDT N 0.0 10.00 Fair -- 30.0 21.2 69% NA NA 30.13 M
5:55 pm CDT N 0.0 10.00 Fair -- 32.0 19.4 60% NA NA 30.12 M
4:55 pm CDT N 0.0 10.00 Overcast -- 36.0 19.4 52% NA NA 30.11 M
3:55 pm CDT NW 4.6 10.00 Overcast -- 34.0 21.2 60% 30 NA 30.12 M
2:55 pm CDT NW 8.1 10.00 Overcast -- 36.0 23.0 60% 30 NA 30.12 M
1:55 pm CDT NW 6.9 10.00 Overcast -- 34.0 24.8 70% 28 NA 30.13 M
12:55 pm CDT NW 6.9 10.00 Overcast -- 34.0 24.8 70% 28 NA 30.15 M
11:55 am CDT N 6.9 10.00 Overcast -- 34.0 24.8 70% 28 NA 30.15 M
10:55 am CDT NW 8.1 10.00 Overcast -- 32.0 24.8 75% 25 NA 30.16 M
9:55 am CDT N 11.5 G 16.1 10.00 Overcast -- 32.0 24.8 75% 23 NA 30.14 M
9:35 am CDT N 10.4 G 16.1 10.00 Overcast -- 32.0 24.8 75% 24 NA 30.13 M
8:55 am CDT N 9.2 10.00 Overcast -- 32.0 24.8 75% 24 NA 30.13 M
8:35 am CDT N 8.1 10.00 Overcast -- 32.0 26.6 80% 25 NA 30.12 M
7:55 am CDT N 9.2 10.00 Overcast -- 32.0 26.6 80% 24 NA 30.11 M
6:55 am CDT N 11.5 10.00 Overcast -- 34.0 26.6 75% 26 NA 30.10 M
5:55 am CDT N 12.7 G 19.6 10.00 Overcast -- 34.0 26.6 75% 25 NA 30.08 M
4:55 am CDT N 10.4 G 16.1 10.00 Overcast -- 34.0 26.6 75% 26 NA 30.08 M
3:55 am CDT N 10.4 G 17.3 10.00 Overcast -- 36.0 28.4 75% 28 NA 30.07 M
2:55 am CDT N 11.5 G 17.3 10.00 Overcast -- 36.0 28.4 75% 28 NA 30.08 M
2:35 am CDT N 10.4 10.00 Overcast -- 36.0 28.4 75% 28 NA 30.07 M
1:15 am CDT N 11.5 G 18.4 10.00 Overcast -- 37.0 30.2 75% 29 NA 30.07 M
12:55 am CDT N 6.9 10.00 Overcast -- 37.0 32.0 81% 32 NA 30.06 M
12:35 am CDT N 8.1 10.00 Overcast -- 37.0 32.0 81% 31 NA 30.06 M
11:55 pm CDT NW 8.1 10.00 Overcast -- 37.0 33.8 87% 31 NA 30.05 M

Regional Weather Observation


Minneapolis - Flying Cloud Airport, MN (KFCM)

Fair
32.0 F

Downtown Holman Field, MN (KSTP)

Fair
33.0 F

South St. Paul Municipal-Richard E. Flemi, MN (KSGS)

Fair
31.0 F

Minneapolis, Airlake Airport, MN (KLVN)

Fair
30.0 F

Stanton Airfield, MN (KSYN)

Partly Cloudy
32.0 F

Minneapolis, Crystal Airport, MN (KMIC)

Fair
29.0 F